www.pogodaiklimat.ru
ПОГОДА в Мускегоне
Время
и дата
03:55 14.01
04:08 14.01
04:44 14.01
04:53 14.01
04:55 14.01
05:10 14.01
05:55 14.01
06:07 14.01
06:43 14.01
06:52 14.01
06:55 14.01
07:55 14.01
08:19 14.01
08:31 14.01
08:55 14.01
09:55 14.01
10:55 14.01
11:55 14.01
12:55 14.01
13:55 14.01
14:55 14.01
15:55 14.01
16:55 14.01
17:55 14.01
18:55 14.01
19:55 14.01
20:55 14.01
21:02 14.01
21:45 14.01
21:55 14.01
22:55 14.01
23:11 14.01
23:29 14.01
23:55 14.01
00:55 15.01
01:19 15.01
01:55 15.01
02:38 15.01
02:55 15.01
03:31 15.01
03:55 15.01
04:55 15.01
05:55 15.01
06:55 15.01
07:33 15.01
07:55 15.01
08:03 15.01
08:55 15.01
Ветер
(напр.,м/с)
Видим. Явления Облачность Т
(С)
Тd
(С)
f
(%)
Тe
(С)
Тes
(С)
Комфортность P
(гПа)
Po
(гПа)
Тmin
(С)
Tmax
(С)
R
(мм)
R24
(мм)
S
(см)
Ю 1 5 км дымка ясно +0.6 -0.6 92 -3 -3 1004.8 981.7
ЮВ 1 4 км дымка ясно 0.0 -1.1 92 -4 -4 981.4
В 1 3 км дымка ясно -0.6 -1.1 96 -6 -6 981.4
ЮВ 1 3 км дымка ясно -1.0 -2.0 93 -5 -5 981.4
ЮВ 1 3 км дымка ясно -1.1 -1.7 96 -5 -5 1004.6 981.4
ЮВ 1 2 км дымка ясно -0.6 -1.7 92 -4 -4 981.4
В 1 1 км дымка 2/0 2100 м
[Ac]
-1.1 -2.2 92 -6 -6 1004.5 981.4
ЮВ 1 2 км дымка 2/0 2100 м
[Ac]
-1.1 -2.2 92 -6 -6 981.4
В 1 4 км дымка 2/0 2100 м
[Ac]
-1.1 -2.2 92 -6 -6 981.1
В 1 5 км дымка 2/0 2100 м
[Ac]
-1.0 -2.0 93 -6 -6 981.1
В 1 5 км дымка 2/0 2100 м
[Ac]
-1.1 -2.2 92 -6 -6 1004.1 980.7 -1.7 +2.8
ЮВ 1 6 км дымка 2/0 7500 м
[Ci]
-1.1 -2.8 88 -6 -6 1004.5 981.4
В 1 4 км дымка 2/0 7500 м
[Ci]
-1.1 -2.8 88 -6 -6 981.4
ЮВ 1 5 км дымка 2/0 7500 м
[Ci]
0.0 -1.7 88 -5 -5 981.4
В 1 5 км дымка 2/0 7500 м
[Ci]
0.0 -1.7 88 -5 -5 1004.7 981.4
ЮВ 2 5 км дымка 8/0 7500 м
[Ci]
+1.1 -0.6 88 -4 -4 1004.9 981.7
В 2 5 км дымка 8/0 6900 м
[Ci]
+2.2 0.0 85 -3 -3 1004.9 981.7
ЮВ 2 13 км 10/0 5700 м
[Ac Ci]
+3.3 0.0 79 -1 0 1004.3 981.1
В 2 14 км 10/0 5700 м
[Ac]
+3.9 0.0 76 -1 0 1002.5 979.4 -1.7 +3.9
В 3 16 км 8/0 4500 м
[Ac]
+6.1 0.0 65 +2 +2 1001.7 978.8
В 2 16 км 8/0 5400 м
[Ac]
+5.6 -0.6 64 +2 +3 1001.3 978.4
В 2 16 км 8/0 4200 м
[Ac]
+5.6 -0.6 64 +2 +3 1001.2 978.1
В 3 16 км 10/0 3300 м
[Ac]
+5.0 -1.1 65 0 0 1001.1 978.1
В 3 16 км 10/0 3000 м
[Ac]
+4.4 -1.1 67 -1 -1 1000.9 977.8
В 3 16 км 10/0 3000 м
[Ac]
+4.4 -0.6 70 -1 -1 1000.6 977.4 +3.9 +6.1
В 2 16 км 10/0 3300 м
[Ac]
+3.9 -0.6 72 0 0 1001.2 978.1
В 2 16 км слабый дождь 10/5 660 м
[Ac]
+4.4 -0.6 70 0 0 1000.7 977.4
ЮВ 2 16 км слабый дождь 10/8 660 м
[Ac]
+3.9 -0.6 72 -1 -1 977.4
ЮВ 2 14 км слабый дождь 10/10 630 м +3.9 0.0 76 -1 -1 976.8
В 2 13 км слабый дождь 10/10 600 м +3.9 +0.6 79 -1 -1 999.8 976.8
В 2 11 км слабый дождь 10/10 630 м +3.3 +1.1 85 -1 -1 999.2 976.1
В 2 11 км слабый дождь 10/10 780 м +3.3 +1.1 85 -2 -2 976.1
В 2 11 км слабый дождь 10/10 810 м +3.3 +1.1 85 -2 -2 976.1
В 2 11 км слабый дождь 10/10 750 м +3.3 +1.1 85 -2 -2 998.9 976.1
В 2 6 км слабый дождь, дымка 10/10 570 м +3.3 +1.1 85 -1 -1 998.6 975.8 +3.3 +4.4 1.8
ЮВ 3
{4}
6 км слабый дождь, дымка 10/10 420 м +2.8 +1.1 89 -4 -4 975.8
ЮВ 2 10 км слабый дождь, дымка 10/10 360 м +2.8 +1.1 89 -2 -2 998.7 975.8
Ю 1 8 км дымка 10/10 240 м +2.8 +1.7 92 -1 -1 975.8
ЮВ 2 10 км дымка 10/10 240 м +3.3 +1.1 85 -2 -2 999.0 976.1
Ю 3
{4}
5 км слабый дождь, дымка 10/10 210 м +2.8 +1.7 92 -3 -3 976.1
Ю 2 10 км слабый дождь, дымка 10/10 180 м +2.2 +1.1 92 -3 -3 998.8 975.8 2.8
Ю 1 10 км слабый дождь, дымка 10/10 210 м +2.2 +0.6 89 -2 -2 998.9 975.8
ЮВ 1 16 км слабый дождь 10/10 180 м +2.2 +0.6 89 -1 -1 998.8 975.8
ЮВ 1 8 км дымка 10/10 150 м +1.7 +0.6 92 -3 -3 999.0 976.1 +1.7 +3.3 3.8 5.6
ЮВ 1 11 км 10/10 210 м +1.7 +0.6 92 -2 -2 976.1
ЮВ 1 11 км 10/10 480 м +1.7 0.0 88 -3 -3 999.2 976.1
ЮВ 1 10 км дымка 10/10 480 м +1.7 0.0 88 -3 -3 976.1
ЮВ 1 10 км дымка 10/10 1230 м +1.7 +0.6 92 -2 -2 999.2 976.1
Местоположение метеостанции Muskegon County Airport: широта 43.1711 долгота -86.2367 высота над уровнем моря 191 м.
В архиве по умолчанию представлена погода в Мускегоне за последние 1-2 суток. Обновление информации о фактической погоде в базе происходит ежечасно! Архивные данные за месяц целиком и за предыдущие месяцы Вы можете получить, выбрав интересующий диапазон дат из раскрывающегося списка и нажав кнопку "Ввод!".
Внимание! Архив погоды МЕТАР в базе сайта по станциям, не включенным в климатический монитор, хранится не более 60 дней. Нет смысла пытаться выбрать более раннюю дату.
*Определитесь, кто Вы:
Внимание! Время в таблицах - местное (без учета летнего времени). Для получения всемирного времени необходимо вычесть поправку, которая равна -5 ч.
Смотрите также архив погоды в соседних городах и на ближайших метеорологических станциях:
Партнеры нашего сайта:      
Пояснения к столбцам:
  • Ветер - указаны скорость ветра в м/с - средняя за 10 мин, порывы в срок и между сроками (в фигурных скобках) и направление, откуда дует ветер: С - северный,
  • СВ - северо-восточный, В - восточный, ЮВ - юго-восточный, Ю - южный, ЮЗ - юго-западный, З - западный, СЗ - северо-западный.
  • Видимость - горизонтальная дальность видимости в метрах или километрах. При видимости от 1 до 10 км при отсутствии осадков обычно наблюдается дымка, при ухудшении видимости до 1 км и менее - туман. В сухую погоду видимость может ухудшаться дымом, пылью или мглою.
  • Явления - указаны атмосферные явления, наблюдавшиеся в срок или в последний час перед сроком; фигурными скобками обозначены явления, наблюдавшиеся между сроками (за 1-3 часа до срока); квадратными скобками обозначены град или гололедные отложения с указанием их диаметра в мм.
  • Облачность - указаны через наклонную черту общая и нижняя облачность в баллах и высота нижней границы облаков в метрах; квадратными скобками обозначены формы облаков: Ci - перистые, Cs - перисто-слоистые, Cc - перисто-кучевые, Ac - высококучевые, As - высокослоистые, Sc - слоисто-кучевые, Ns - слоисто-дождевые, Cu - кучевые, Cb - кучево-дождевые. Подробнее классификацию облаков см. в Атласе облаков (PDF).
  • T - Температура воздуха - температура, измеренная на высоте 2 м над землей.
  • Td - Температура точки росы - температура, при понижении до которой содержащийся в воздухе водяной пар достигнет насыщения.
  • f - Относительная влажность воздуха - влажноcть воздуха, измеренная на высоте 2 м над землей.
  • Te - Эффективная температура - температура, которую ощущает одетый по сезону человек в тени. Характеристика душности погоды. При расчете учитывается влияние влажности воздуха и скорости ветра на теплоощущения человека.
  • Tes - Эффективная температура на солнце - температура, которую ощущает человек, с поправкой на солнечный нагрев. Характеристика знойности погоды. Зависит от высоты солнца над горизонтом, облачности и скорости ветра. Ночью, в пасмурную погоду, а также при ветре 12 м/с и более поправка равна нулю.
  • P - Атмосферное давление - приведенное к уровню моря атмосферное давление.
  • Po - Атмосферное давление - измеренное на уровне метеостанции атмосферное давление.
  • Tmin - Минимальная температура - минимум температуры воздуха на высоте 2 м над землей.
  • Tmax - Максимальная температура - максимум температуры воздуха на высоте 2 м над землей.
  • R - Количество осадков - Количество выпавших осадков за период времени, мм. При наведении курсора мыши на число - период времени, за который выпало указанное количество осадков.
  • R24 - Количество осадков - Количество выпавших осадков за 24 часа, мм.
  • S - Снежный покров - Высота снежного покрова, см. При наведении курсора мыши на число - состояние снежного покрова и степень покрытия местности в баллах.